User: anonymous   Login
Location: Unspecified
(0.0000°N, 0.0000°E)
Time: 14:03:43
(UTC+00:00)
Language:

Feng Yun 1-A - Orbit

View from above orbital plane
View from above orbital plane
View from above satellite
View from above satellite

Ground track
Ground track

The orbit data is extracted from the following two-line orbital elements,

1 19467U 88080A   18111.93833730 +.00000101 +00000-0 +94360-4 0  9997
2 19467 099.2069 095.3297 0013292 290.7882 069.1859 14.03070296516217
Epoch (UTC): 21 April 2018 22:31:12
Eccentricity: 0.0013292
inclination: 99.2069°
perigee height: 873 km
apogee height: 893 km
right ascension of ascending node: 95.3297°
argument of perigee: 290.7882°
revolutions per day: 14.03070296
mean anomaly at epoch: 69.1859°
orbit number at epoch: 51621

The dashed part of the orbit path shows where the satellite is in the earth's shadow,  

DLR